Skip Page Navigation
NASA JPL Caltech
NASA Logo - Jet Propulsion Laboratory + View the NASA Portal
+ Center for Near-Earth Object Studies
JPL Home Earth Solar System Stars & Galaxies Technology
JPL Solar System Dynamics
BODIES ORBITS EPHEMERIDES TOOLS PHYSICAL DATA DISCOVERY FAQ SITE MAP
JPL Small-Body Database Browser
Search: [ help ]  
434820 (2006 RV97)
Classification: Main-belt Asteroid          SPK-ID: 2434820
Ephemeris | Orbit Diagram | Orbital Elements | Mission Design | Physical Parameters | Discovery Circumstances ]

[ show orbit diagram ]
Orbital Elements at Epoch 2459000.5 (2020-May-31.0) TDB
Reference: JPL 12 (heliocentric ecliptic J2000)
 Element Value Uncertainty (1-sigma)   Units 
e .1730807561222413 5.6726e-08  
a 2.332978622011764 2.5692e-08 au
q 1.929184918096944 1.3917e-07 au
i 1.744018102439813 1.1474e-05 deg
node 323.8414485100323 0.00022589 deg
peri 112.0356994285672 0.0002365 deg
M 256.8199559032241 6.9925e-05 deg
tp 2459373.542037111327
(2021-Jun-08.04203711)
0.00025789 TDB
period 1301.561116160387
3.56
2.1501e-05
5.887e-08
d
yr
n .2765909303298812 4.569e-09 deg/d
Q 2.736772325926585 3.0139e-08 au
  Orbit Determination Parameters
   # obs. used (total)      92  
   data-arc span      5149 days (14.10 yr)  
   first obs. used      2006-09-15  
   last obs. used      2020-10-20  
   planetary ephem.      DE431  
   SB-pert. ephem.      SB431-N16  
   condition code      0  
   norm. resid. RMS      .56464  
   source      ORB  
   producer      Otto Matic  
   solution date      2020-Nov-12 10:06:08  

Additional Information
 Earth MOID = .945206 au 
 Jupiter MOID = 2.51536 au 
 T_jup = 3.549 
[ hide covariance matrix ]
Orbital Elements at Epoch 2457290.5 (2015-Sep-25.0) TDB
Reference: JPL 12 (heliocentric ecliptic J2000)
 Element Value Uncertainty (1-sigma)   Units 
e .174233514373179 5.6763e-08  
q 1.925523576261226 1.3992e-07 au
tp 2456769.413878831428
(2014-Apr-21.91387883)
0.0002194 TDB
node 323.9962296391059 0.00022625 deg
peri 111.477057335343 0.00023663 deg
i 1.742673426581908 1.147e-05 deg
  Orbit Determination Parameters
   # obs. used (total)      92  
   data-arc span      5149 days (14.10 yr)  
   first obs. used      2006-09-15  
   last obs. used      2020-10-20  
   planetary ephem.      DE431  
   SB-pert. ephem.      SB431-N16  
   condition code      0  
   norm. resid. RMS      .56464  
   source      ORB  
   producer      Otto Matic  
   solution date      2020-Nov-12 10:06:08  

Additional Information
 Jupiter MOID = 2.51536 au 
 T_jup = 3.549 
Orbit Covariance (6×6)
  e q tp node peri i
e 3.221989096284642E-15 -7.853824794204859E-15 -8.024940279985541E-13 -3.670315729771898E-15 -6.63450604836144E-14 -1.94330944608373E-15
q -7.853824794204859E-15 1.957737409826666E-14 5.585308850590096E-12 -2.053338232878272E-14 1.320223995049802E-12 6.819193895546928E-15
tp -8.024940279985541E-13 5.585308850590096E-12 4.813604296755228E-8 -3.610629698363704E-10 1.522904328700796E-8 2.588477544127965E-11
node -3.670315729771898E-15 -2.053338232878272E-14 -3.610629698363704E-10 5.1190888644357E-8 -5.12790229777135E-8 1.450710225813721E-9
peri -6.63450604836144E-14 1.320223995049802E-12 1.522904328700796E-8 -5.12790229777135E-8 5.599451327746887E-8 -1.442204123010427E-9
i -1.94330944608373E-15 6.819193895546928E-15 2.588477544127965E-11 1.450710225813721E-9 -1.442204123010427E-9 1.315603997296304E-10

Ephemeris | Orbit Diagram | Orbital Elements | Mission Design | Physical Parameters | Discovery Circumstances ]

Physical Parameter Table
Parameter Symbol Value Units Sigma Reference Notes
absolute magnitude H 18.5   n/a E2013T88  

434820 (2006 RV97)          Discovered 2006-Sep-15 by Spacewatch at Kitt Peak
Reference: Last Updated: 2015-06-04
Ephemeris | Orbit Diagram | Orbital Elements | Mission Design | Physical Parameters | Discovery Circumstances ]
ABOUT SSD CREDITS/AWARDS PRIVACY/COPYRIGHT GLOSSARY LINKS
FirstGov 2020-Nov-29 02:59 UT
(server date/time)  
NASA Home Page
Site Manager:   Ryan S. Park
Webmaster  Alan B. Chamberlin